Location: Dana
(41.8364°N, 106.7042°W)
Time: 14:53:12
(UTC+00:00)

SR - Pass Details

Date: 11 May 2026
Orbit: 567 x 853 km, 66.7° (Epoch: 7 June)

Event Time Altitude Azimuth Distance (km) Brightness Sun altitude
Rises 21:46:18 0° 341° (NNW) 3,334 ? 48.0°
Reaches altitude 10° 21:50:16 10° 9° (N) 2,445 ? 47.3°
Maximum altitude 21:52:47 13° 35° (NE) 2,260 ? 46.9°
Drops below altitude 10° 21:55:20 10° 62° (ENE) 2,477 ? 46.4°
Sets 21:59:23 0° 89° (E) 3,418 ? 45.7°
